Hourly Data Report for September 22, 2018

ASHCROFT
BRITISH COLUMBIA
Current Station Operator: ECCC - MSC

50°42'30.005" N
121°16'53.001" W
327.00 m
1160515
71681
VAS

Download Data

Hourly Data (September 2018)
Hourly Data Report for September 22, 2018
TIME
LST
Temp Definition
°C
Dew Point Definition
°C
Rel Hum Definition
%
Precip. Amount Definition
mm

Wind Dir Definition
10's deg

Wind Spd Definition
km/h
Visibility Definition
km
Stn Press Definition
kPa
Hmdx Definition


Wind Chill Definition


Weather Definition


00:00 11.6 9.2 85 0.0 11 4   97.00     LegendNANA
01:00 11.5 9.3 86 0.0   0   97.01     LegendNANA
02:00 11.5 9.6 88 0.0 8 1   97.03     LegendNANA
03:00 11.6 9.5 87 0.0 36 4   97.03     LegendNANA
04:00 11.8 9.5 86 0.0 17 2   97.06     LegendNANA
05:00 11.5 9.5 87 0.0 3 3   97.10     LegendNANA
06:00 11.5 9.5 87 0.0   0   97.15     LegendNANA
07:00 11.9 9.6 86 0.0 20 1   97.17     LegendNANA
08:00 12.1 8.1 76 0.0 6 8   97.20     LegendNANA
09:00 12.5 7.2 70 0.0 6 10   97.24     LegendNANA
10:00 13.1 7.2 67 0.0 6 8   97.29     LegendNANA
11:00 14.1 7.6 65 0.0 1 4   97.28     LegendNANA
12:00 15.2 7.7 61 0.2 28 4   97.27     LegendNANA
13:00 15.1 7.7 61 0.0 24 3   97.28     LegendNANA
14:00 15.0 7.6 61 0.0 2 3   97.28     LegendNANA
15:00 14.9 7.8 62 0.0 2 6   97.29     LegendNANA
16:00 15.2 7.8 61 0.0 2 6   97.31     LegendNANA
17:00 14.4 7.4 62 0.0 6 8   97.33     LegendNANA
18:00 13.9 6.8 62 0.0 7 11   97.35     LegendNANA
19:00 12.6 7.1 69 0.0 36 11   97.44     LegendNANA
20:00 10.7 6.4 75 0.4 5 10   97.52     LegendNANA
21:00 10.5 5.2 70 0.4 7 14   97.60     LegendNANA
22:00 10.7 4.6 66 0.0 7 16   97.64     LegendNANA
23:00 10.7 4.4 65 0.0 7 10   97.69     LegendNANA

Notes on Data Quality.

Legend

  • E = Estimated
  • M = Missing
  • NA = Not Available*
  • [empty] = Indicates an unobserved value
Date modified: